Regional Weather Roundup
Issued by NWS Upton, NY

Home | Current Version | Previous Version | Text Only | Print | Product List | Glossary On
Versions: 1 2 3 4 5 6 7 8 9 10 11 12 13 14 15 16 17 18 19 20 21 22 23 24 25 26 27 28 29 30 31 32 33 34 35 36 37 38 39 40 41 42 43 44 45 46 47 48 49 50
000
ASUS41 KOKX 031205
RWROKX

Regional Weather Roundup
National Weather Service New York NY
800 AM EDT TUE AUG 03 2021

Note: "FAIR" indicates few or no clouds below 12,000 feet with no
significant weather and/or obstructions to visibility.

NYZ071-072-176-178-NJZ106-104-031300-
New York City Metro Area

CITY           SKY/WX    TMP DP  RH WIND       PRES   REMARKS
Central Park   CLOUDY    68  55  63 VRB3      30.15S
Bronx Lehman C   N/A     66  54  63 N2          N/A
LaGuardia Arpt CLOUDY    69  53  56 NE3       30.12S
Queens College   N/A     68  57  68 N2          N/A
Kennedy Intl   CLOUDY    69  54  58 N6        30.13S
Breezy Point     N/A     68 N/A N/A N5          N/A
Brooklyn Coll    N/A     70  52  52 N6          N/A
Staten Island    N/A     66  55  68 N2          N/A
Newark/Liberty CLOUDY    67  55  65 CALM      30.12S
Teterboro      CLOUDY    64  54  69 N3        30.12S
$$

NYZ177-179-078>081-031300-
Long Island New York

CITY           SKY/WX    TMP DP  RH WIND       PRES   REMARKS
Jones Beach      N/A     66 N/A N/A N3          N/A
Wantagh          N/A     66  59  77 N2          N/A
Hempstead      NOT AVBL
Matinecock Pt    N/A     66 N/A N/A N3          N/A
Farmingdale    CLOUDY    68  54  60 N6        30.13R
MacArthur/ISP  CLOUDY    68  58  70 N5        30.12R
Shirley        CLOUDY    68  58  70 NW3       30.12R
Mt Sinai Harb    N/A     68 N/A N/A N2          N/A
Westhampton    PTSUNNY   65  58  78 CALM      30.13R
East Hampton   FAIR      65  61  85 CALM      30.11S
Southold         N/A     66  61  82 N3          N/A
Montauk          N/A     70  61  73 CALM      30.12S
$$

NYZ052-065-067-031300-
Hudson Valley

CITY           SKY/WX    TMP DP  RH WIND       PRES   REMARKS
White Plains   CLOUDY    62  52  69 NW6       30.13S
Larchmont Harb   N/A     63 N/A N/A CALM        N/A
Croton On Huds   N/A     61 N/A N/A E2          N/A
Somers           N/A    N/A N/A N/A NW1         N/A
Brewster         N/A     54  54 100 CALM        N/A
Newburgh       PTSUNNY   55  55 100 CALM      30.15R
Montgomery     PTSUNNY   54  52  93 CALM      30.15R
Otisville        N/A     54  52  94 CALM        N/A
Warwick          N/A     54  54 100 N2          N/A
Suffern          N/A     61  52  72 CALM        N/A
Poughkeepsie   PTSUNNY   57  53  86 CALM      30.14S
Albany         MOSUNNY   56  54  93 S6        30.15R
$$

NJZ001-105-106-008-010-013-015-019>022-104-031300-
New Jersey

CITY           SKY/WX    TMP DP  RH WIND       PRES   REMARKS
Newark/Liberty CLOUDY    67  55  65 CALM      30.12S
Teterboro      CLOUDY    64  54  69 N3        30.12S
Caldwell       CLOUDY    63  54  72 CALM      30.14S
Somerville     CLOUDY    59  56  89 CALM      30.12S
Linden         FAIR      65  52  60 CALM      30.13S
Perth Amboy      N/A     66 N/A N/A N3          N/A
Sussex         CLOUDY    55  55 100 CALM      30.15S
Andover          N/A     59  58  96 CALM      30.15S
Trenton        CLOUDY    63  54  72 CALM      30.13R
Millville      CLOUDY    65  60  84 CALM      30.11F
Atlantic City  CLOUDY    65  58  78 CALM      30.11S
Wrightstown    CLOUDY    63  57  80 CALM      30.12R
Toms River     NOT AVBL
Belmar         CLOUDY    66  58  75 N3        30.14R
$$

PAZ047>061-062-071-031300-
Eastern Pennsylvania

CITY           SKY/WX    TMP DP  RH WIND       PRES   REMARKS
Philadelphia   CLOUDY    68  57  68 N5        30.12S
Allentown      CLOUDY    58  53  84 CALM      30.14S
Scranton       MOSUNNY   57  49  74 E3        30.16S
$$

CTZ002-004>006-009-010-012-RIZ004-006-007-MAZ004-011-015-031300-
Southern New England

 In CT

CITY           SKY/WX    TMP DP  RH WIND       PRES   REMARKS
Bradley Intl   PTSUNNY   61  54  77 N3        30.13S
Hartford       PTSUNNY   62  54  74 N5        30.13R
Danbury        CLOUDY    59  54  83 CALM      30.15S
Wtrbury/Oxford PTSUNNY   58  57  97 NW3       30.15R
Norwalk Harbor   N/A     63 N/A N/A NW2         N/A
Bridgeport     CLOUDY    65  54  67 NW5       30.12S
Meriden        PTSUNNY   61  54  77 CALM      30.13S
New Haven      CLOUDY    65  56  72 N3        30.12S
Chester        FAIR      64  55  72 CALM      30.13R
Groton         PTSUNNY   65  57  75 N5        30.11R
Willimantic    PTSUNNY   57  54  89 CALM      30.13F

 In RI

CITY           SKY/WX    TMP DP  RH WIND       PRES   REMARKS
Providence     PTSUNNY   68  57  68 CALM      30.12S
Block Island   PTSUNNY   67  58  72 NE5       30.12S
Westerly       PTSUNNY   62  58  86 NE3       30.11S

In MA

CITY           SKY/WX    TMP DP  RH WIND       PRES   REMARKS
Boston         PTSUNNY   72  55  55 CALM      30.11S
Worcester      PTSUNNY   67  49  52 CALM      30.13S
Westfield      PTSUNNY   60  56  86 CALM      30.13S
Provincetown   PTSUNNY   69  62  78 NE5       30.12R
Nantucket      PTSUNNY   72  68  87 SE6       30.12R
$$

ANZ330-335-338-340-345-350-353-355-031300-
Coastal Marine Observations


STATION/POSITION TIME  SKY/WX   TEMP    WIND        PRES    VSBY  WAVE
                                AIR SEA DIR/SP/G                  HT/PER
                 (UTC)          (F)     (DEG/KT/KT) (MB)    (MI)  (FT/S)
NY Harb Entrance 1140               72   40/ 10/ 12 1019.2
20 S Fire Island 1140               71              1019.2
Great South Bay  1130            68 80     CALM       N/A
23 SSW Montauk P 1140            69 71   50/  4/  6 1019.8
15 E Barnegat Li 1126               73                N/A           2/ 8
Hudson Canyon    1140            72 73   CALM  /  2 1019.9
Kings Point      1124            67      70/  3/  5 1021.1
Execution Rocks  1145            66      20/  4/ 12   N/A
Western LI Sound 1130            66      10/  4/  6   N/A
Central LI Sound 1100            69 72   30/  2/  4   N/A           0
Robbins Reef     1124            67     330/  2/  4 1020.0
$$


>>>>>>>>>>>>>>>>>>>>>>>>>>>> KEY <<<<<<<<<<<<<<<<<<<<<<<<<<<
>                                                          <
>     SKY/WX - Sky Condition/Present Weather               <
>     TMP    - Temperature in Fahrenheit                   <
>     DP     - Dew Point in Fahrenheit                     <
>     RH     - Relative Humidity in Percent                <
>     WIND   - Direction (from) and Speed in MPH           <
>     PRES   - Mean Sea Level Pressure (inches of Hg)      <
>     WCI    - Wind Chill Index                            <
>     VSB    - Visibility in Miles                         <
>     HX     - Heat Index                                  <
>     TC     - Temperature in Celsius                      <
>     VRB    - Variable Wind Direction                     <
>                                                          <
>>>>>>>>>>>>>>>>>>>>>>>>>>>> KEY <<<<<<<<<<<<<<<<<<<<<<<<<<<



USA.gov is the U.S. government's official web portal to all federal, state and local government web resources and services.